Temperature
17 17 17 17 17 16 16 16 16 16 16 16 16 16 16 16 16 16 16 16 16 16 16 16 16 16 16 16 16 16 16 16 15 16 15 15 15 15 15 15 15 15 15
17 17 17 17 17 16 16 16 16 16 16 16 16 15 15 15 15 15 15 15 15 15 15 15 15 15 15 15 15 15 15 15 15 15 15 15 15 15 15 15 15 15 15
17 17 16 16 16 16 16 16 16 16 16 16 16 15 15 15 15 15 15 15 15 15 15 15 15 15 15 15 15 15 15 15 15 15 15 15 15 15 15 15 15 15 15
17 16 16 16 16 16 16 16 15 15 15 15 15 15 15 15 15 15 15 15 15 15 15 15 15 15 15 15 15 15 15 14 14 14 14 14 14 14 15 14 14 15 15
16 16 16 16 16 16 16 16 15 15 15 15 15 15 15 15 15 15 15 15 15 15 15 15 15 15 15 15 15 15 14 14 14 14 14 14 14 14 14 14 14 14 14
15 15 16 16 16 16 15 15 15 15 15 15 15 15 15 15 15 15 15 15 15 15 15 15 15 15 15 15 15 14 14 14 14 14 14 14 14 14 14 14 14 14 14
15 15 15 15 15 15 15 15 15 15 15 15 15 15 15 15 14 14 14 14 15 15 15 15 15 15 15 15 15 14 14 14 14 14 14 13 14 14 14 14 14 14 14
15 15 15 15 15 15 15 15 15 15 15 15 15 14 14 14 14 14 14 14 14 14 15 15 15 15 15 14 14 14 14 14 14 13 13 13 13 13 13 14 14 14 14
14 15 14 14 14 14 15 14 15 15 14 14 14 14 14 14 14 14 14 14 14 14 14 14 14 14 14 14 14 14 14 13 13 13 13 13 13 13 13 13 14 14 13
14 14 14 14 14 14 14 14 14 14 14 14 14 14 14 14 14 14 14 14 14 14 14 14 14 14 14 14 14 14 13 13 13 13 13 13 13 13 13 13 13 13 13
14 14 14 14 14 14 14 14 14 14 14 14 13 14 13 13 13 14 14 14 14 14 14 14 14 14 14 14 13 13 13 13 13 13 13 13 13 13 13 13 13 13 13
13 13 13 13 13 13 13 14 13 13 13 13 13 13 13 13 13 13 13 13 13 13 13 14 13 13 13 13 13 13 13 13 13 13 13 13 13 13 13 13 13 13 13
13 13 13 13 13 13 13 13 13 13 13 13 13 13 13 13 13 13 13 13 13 13 13 13 13 13 13 13 13 13 13 13 13 13 13 13 13 13 13 13 13 13 13
13 13 13 13 13 13 13 13 13 13 12 12 12 12 12 12 12 13 13 13 13 13 13 13 13 13 13 13 12 12 12 12 13 12 12 12 12 12 12 12 12 13 12
13 13 13 13 13 13 12 12 12 12 12 12 12 12 12 12 12 12 12 12 12 12 12 12 12 12 12 12 12 12 12 12 12 12 12 12 12 12 12 12 12 12 12
13 13 13 12 12 12 12 12 12 12 12 12 12 12 12 12 12 12 12 12 12 12 12 12 12 12 12 12 12 12 12 12 12 12 12 12 12 12 12 12 12 12 12
12 12 12 12 12 12 12 12 12 12 12 12 12 12 12 12 12 12 12 12 12 12 12 12 12 12 12 12 12 12 12 11 11 11 11 11 12 12 12 12 11 11 11
12 12 12 12 12 12 12 12 12 12 12 12 12 12 12 12 12 11 11 11 11 12 12 12 12 12 11 11 11 11 11 11 11 11 11 11 11 11 11 11 11 11 11
12 12 12 12 12 12 12 12 12 11 11 11 11 11 11 12 11 11 11 11 11 11 11 11 11 11 11 11 11 11 11 11 11 11 11 11 11 11 11 11 11 11 11
12 12 12 12 12 12 11 11 11 11 11 11 11 11 11 11 11 11 11 11 11 11 11 11 11 11 11 11 11 11 11 10 10 10 10 10 10 10 11 10 10 10 10
11 11 11 11 11 11 11 11 11 11 11 11 11 11 11 11 11 11 11 11 11 11 11 11 11 11 11 11 10 10 10 10 10 10 10 10 10 10 10 10 10 10 10
11 11 11 11 11 11 11 11 11 11 11 11 11 11 11 11 11 11 11 11 11 10 10 10 10 10 10 10 10 10 9 9 9 10 9 10 10 10 10 10 10 10 10
11 11 11 11 11 11 11 11 10 10 10 10 10 10 10 10 11 11 10 10 10 10 10 10 10 10 10 10 10 10 9 9 9 9 9 9 9 9 9 9 9 9 9
10 10 10 10 11 11 11 11 10 10 10 10 10 10 10 10 10 10 10 10 10 10 10 10 10 10 10 10 10 10 10 10 9 8 8 9 9 9 9 9 9 9 9
10 10 10 10 10 10 10 10 10 10 10 10 10 10 10 10 10 10 10 10 10 10 10 10 10 10 10 10 9 9 9 9 9 9 8 8 8 8 8 9 9 9 8
10 10 10 9 10 10 10 10 10 10 10 10 10 9 10 9 10 10 10 10 10 10 10 10 9 9 9 9 9 9 9 9 9 9 9 8 8 8 8 8 8 8 8
Wind_Speed
11 14 17 15 14 13 13 12 11 11 11 10 10 10 10 10 10 10 10 10 10 11 11 11 12 12 13 14 15 16 16 17 17 18 17 17 17 17 17 16 17 17 18
14 16 17 16 14 14 13 12 11 11 10 10 10 10 9 9 10 10 10 10 10 10 10 11 11 12 13 14 14 14 15 15 15 16 17 17 17 17 17 17 17 16 18
15 16 17 15 14 14 13 12 11 11 10 10 9 9 9 9 9 9 9 10 10 10 10 10 11 11 12 13 13 13 12 11 10 12 13 14 15 16 17 18 18 18 18
14 16 15 15 14 13 13 12 11 11 10 9 9 9 8 9 9 9 9 10 10 10 11 11 11 12 13 13 12 11 9 8 8 9 10 13 14 15 16 17 17 17 17
12 15 16 16 14 13 12 11 11 10 10 9 9 9 9 8 9 9 9 10 10 10 11 11 12 12 12 12 11 9 7 6 8 9 12 15 14 15 15 16 16 16 16
11 14 16 15 14 13 12 11 11 10 10 10 9 9 9 9 9 9 9 9 10 10 11 11 12 12 12 10 9 7 5 4 8 9 13 14 14 14 15 15 15 14 15
10 13 15 15 13 13 12 12 11 10 10 10 9 9 9 9 9 9 9 9 10 10 10 11 11 11 11 9 8 6 5 7 8 10 13 13 13 14 13 13 13 13 13
10 12 14 14 13 13 13 12 11 11 10 10 9 9 9 9 9 9 8 9 9 10 10 11 11 10 10 9 8 6 5 7 7 10 13 13 13 13 13 12 13 13 13
10 10 11 12 12 12 12 11 11 11 10 10 10 9 9 9 9 8 8 9 9 9 10 10 11 10 10 9 8 7 7 7 7 9 11 12 13 12 12 12 12 12 12
8 9 9 10 11 10 10 11 11 11 11 11 10 10 10 10 9 8 9 9 9 9 9 10 10 11 10 9 7 6 6 7 8 9 11 11 12 12 12 12 11 11 12
7 7 8 8 9 10 10 10 10 11 12 12 11 11 10 9 8 8 8 9 9 9 9 10 10 10 10 8 7 7 6 7 9 9 10 11 12 12 12 11 11 11 11
7 7 7 8 8 8 9 10 9 9 10 10 10 10 8 8 8 8 9 9 9 9 9 10 10 10 9 7 6 6 6 7 8 9 10 12 11 11 11 10 10 10 10
7 7 7 7 8 7 6 8 7 8 8 8 9 9 8 8 8 8 8 8 8 8 7 8 8 7 7 7 6 6 6 7 8 10 11 12 11 10 10 9 9 9 9
7 8 7 7 7 7 6 6 6 5 6 6 8 8 7 6 5 6 6 6 7 6 6 6 6 6 7 7 7 7 7 8 9 10 11 12 11 10 9 8 8 8 8
7 7 8 8 7 7 6 6 6 5 5 7 7 7 7 5 4 5 5 5 5 6 6 5 5 5 6 6 6 7 7 9 10 11 10 11 10 9 8 7 7 7 7
7 7 7 8 7 7 6 5 5 5 6 7 7 8 7 7 6 5 4 4 5 5 6 5 5 4 5 5 5 6 8 9 10 11 11 10 9 8 7 6 6 6 6
8 7 7 7 7 7 7 6 6 6 7 6 7 9 8 8 7 6 4 4 5 5 6 5 5 5 5 5 4 6 7 8 9 10 10 9 9 8 7 6 6 6 5
7 8 7 7 7 7 6 6 5 6 6 6 7 9 9 9 9 6 4 4 6 6 5 3 3 3 4 4 4 4 5 7 8 8 9 9 8 7 7 6 6 5 5
8 8 7 7 7 7 7 5 6 6 6 6 7 7 9 10 10 8 5 5 7 5 3 3 3 4 5 4 5 4 4 4 5 7 7 8 7 7 7 6 6 5 5
7 7 7 7 7 7 6 5 4 5 5 5 5 6 9 9 9 8 6 6 6 4 3 3 4 4 5 5 6 5 4 4 4 4 5 6 7 6 6 5 5 5 5
7 7 8 7 7 6 5 5 5 5 5 4 4 7 8 9 9 8 6 5 5 4 5 5 5 6 5 5 5 4 3 4 4 3 3 4 4 5 5 5 5 5 5
7 7 7 7 8 7 6 5 4 5 4 4 4 6 8 8 9 8 6 5 5 4 5 5 6 4 4 4 4 4 2 1 1 1 2 2 3 4 4 4 4 5 5
6 7 7 7 7 7 7 5 5 4 3 3 4 4 5 8 8 8 7 6 6 5 5 6 7 6 5 3 2 3 3 3 2 0 0 1 2 2 2 3 3 4 5
5 5 6 7 7 7 8 7 8 6 5 4 4 4 4 7 7 8 8 7 6 5 6 6 6 5 6 5 2 1 2 3 3 2 0 0 1 2 2 2 2 3 4
5 5 5 7 7 6 7 8 8 6 4 4 5 5 5 4 6 7 8 7 6 5 6 6 6 6 5 5 3 2 2 2 2 3 2 1 0 1 1 2 3 3 4
4 4 5 6 6 7 6 7 8 8 8 7 7 6 5 4 4 6 7 6 6 5 6 7 6 6 5 5 4 3 3 3 2 2 3 2 2 1 0 1 2 3 4
Wind_Direction
123 134 140 136 132 128 127 124 121 117 114 111 108 104 101 104 108 107 105 106 109 108 104 101 101 97 93 89 87 86 85 85 86 84 80 78 77 77 76 77 78 78 79
126 135 140 138 134 131 129 127 124 121 119 117 115 110 105 105 110 110 109 107 108 110 108 105 104 103 98 95 93 92 92 93 96 94 87 79 77 77 77 77 80 83 81
126 135 140 138 136 134 132 131 130 127 125 123 120 116 110 107 109 115 111 108 107 106 106 107 106 105 102 99 98 97 97 98 102 103 96 89 83 82 82 82 83 83 82
125 135 140 138 138 137 136 135 136 133 132 130 126 121 117 113 110 111 113 110 107 105 104 103 103 103 103 103 103 102 100 93 96 96 94 94 90 88 86 84 83 83 83
124 130 136 140 140 140 139 138 139 137 136 134 130 126 121 118 114 109 110 110 107 105 105 103 101 102 103 105 106 106 100 81 89 92 89 91 92 93 90 87 85 84 84
124 126 135 140 142 142 140 139 140 140 137 135 133 129 125 122 116 113 111 112 111 107 106 107 106 106 105 106 107 104 90 74 91 86 90 93 95 96 94 90 87 86 85
124 125 137 138 141 144 143 142 140 141 139 136 134 132 128 124 117 115 115 116 116 113 111 111 110 110 110 110 107 97 80 89 90 84 88 92 97 98 96 93 90 88 88
123 126 138 140 139 140 142 142 142 142 142 138 135 134 130 126 121 118 121 123 121 120 117 116 116 115 115 115 110 98 82 95 93 93 92 96 99 98 96 94 90 90 89
124 130 137 142 140 140 140 144 145 144 143 141 137 134 130 126 126 125 126 125 126 126 124 121 121 120 119 117 112 98 84 94 81 90 94 96 101 100 98 95 92 91 89
128 136 143 146 144 142 140 144 144 146 146 143 139 135 132 129 132 131 130 129 131 131 130 127 125 127 124 121 117 107 95 92 88 88 93 100 103 103 100 97 93 91 89
142 146 149 149 147 148 149 146 143 146 146 142 141 142 143 143 138 133 131 134 136 137 137 135 132 133 131 128 126 116 102 97 93 91 96 106 107 105 101 96 92 92 90
160 161 157 153 150 150 152 150 152 150 151 153 150 154 156 142 133 130 130 133 136 141 144 146 147 144 140 130 128 125 111 102 96 96 102 111 111 108 105 101 96 95 93
170 166 161 157 151 150 146 154 157 156 161 160 159 162 149 136 132 131 132 136 139 145 146 150 152 145 131 124 119 115 109 104 99 98 106 108 107 107 106 103 100 97 95
174 169 161 157 155 155 151 150 149 146 156 153 159 162 148 136 136 138 139 147 147 147 146 148 146 141 134 128 126 119 111 106 104 103 109 112 110 107 105 101 102 100 98
177 170 164 160 164 161 154 156 153 151 156 154 156 160 149 140 145 139 141 149 147 148 146 143 139 134 124 122 121 116 109 110 110 106 107 111 112 110 109 106 107 109 106
179 172 165 165 168 162 161 162 156 152 151 151 155 155 154 147 138 137 138 141 135 138 138 137 137 127 116 112 108 105 107 112 115 115 111 106 106 108 110 115 113 113 114
179 170 170 172 167 168 167 165 153 150 153 151 156 159 157 151 142 139 139 136 134 139 136 134 124 120 117 110 104 94 95 101 107 113 114 111 106 102 105 113 115 113 111
174 171 174 175 166 169 167 161 151 153 151 150 157 159 158 156 155 145 140 139 141 139 133 136 135 130 125 119 110 98 92 97 101 106 108 109 111 108 101 103 110 112 108
173 171 172 168 166 167 162 160 157 157 152 151 157 156 158 158 160 149 141 142 144 137 137 149 140 141 130 118 109 99 86 83 93 100 99 101 104 108 107 104 105 104 100
170 167 168 166 164 163 156 157 154 151 150 149 153 154 156 158 157 148 142 146 145 143 149 145 139 133 129 125 110 93 78 76 74 81 97 97 96 102 107 106 107 104 99
164 166 167 165 167 161 158 162 162 164 162 160 152 156 159 159 156 150 145 149 149 159 162 154 142 137 130 120 106 93 61 64 77 70 83 97 95 98 101 99 103 103 99
167 168 167 165 162 161 161 161 159 153 159 162 152 155 159 160 158 158 153 158 156 158 159 155 147 140 143 145 136 132 127 66 23 63 73 96 103 95 92 95 101 98 103
168 168 169 164 158 157 153 149 144 135 134 149 156 162 161 162 162 161 158 157 159 165 166 164 158 152 162 176 144 145 153 173 158 68 141 113 109 101 96 95 90 90 95
162 156 159 158 156 156 156 159 159 162 166 171 164 166 162 161 159 161 162 160 165 166 169 172 165 161 162 171 164 112 129 134 141 144 315 154 130 120 123 111 106 101 99
154 155 157 153 151 154 161 162 162 164 166 158 153 156 163 160 158 163 164 163 168 169 171 172 165 165 170 171 165 148 117 93 101 138 167 194 205 194 153 143 140 129 119
139 147 153 152 156 156 158 167 168 168 166 161 159 163 166 162 163 163 165 168 170 169 171 169 169 170 173 167 159 154 153 149 159 142 156 169 191 232 175 139 135 130 116
Height
1505 1507 1509 1512 1514 1517 1519 1521 1523 1525 1526 1528 1529 1531 1532 1534 1535 1536 1537 1539 1540 1541 1542 1544 1545 1546 1547 1547 1548 1549 1550 1550 1551 1551 1552 1552 1553 1553 1554 1554 1554 1554 1555
1503 1506 1509 1512 1514 1517 1519 1521 1523 1525 1527 1528 1530 1531 1533 1534 1536 1537 1538 1540 1541 1542 1544 1545 1546 1547 1548 1549 1550 1551 1551 1552 1553 1553 1554 1554 1555 1555 1556 1556 1556 1557 1557
1503 1506 1509 1511 1514 1516 1519 1521 1523 1525 1527 1529 1530 1532 1533 1535 1536 1538 1539 1541 1542 1543 1544 1546 1547 1548 1549 1550 1551 1552 1553 1554 1555 1555 1555 1556 1557 1557 1558 1558 1559 1559 1559
1503 1505 1508 1511 1514 1516 1519 1521 1523 1525 1527 1529 1530 1532 1534 1535 1537 1538 1540 1541 1543 1544 1545 1547 1548 1549 1550 1551 1553 1554 1555 1556 1557 1557 1557 1558 1558 1559 1560 1560 1561 1561 1561
1503 1505 1508 1511 1513 1516 1518 1521 1523 1525 1527 1529 1530 1532 1534 1535 1537 1539 1540 1542 1543 1545 1546 1547 1549 1550 1551 1553 1554 1555 1556 1557 1558 1559 1559 1560 1560 1561 1561 1562 1562 1563 1563
1503 1505 1507 1510 1513 1515 1518 1520 1522 1524 1526 1528 1530 1532 1534 1535 1537 1539 1540 1542 1544 1545 1546 1548 1549 1551 1552 1553 1555 1556 1557 1559 1559 1560 1561 1561 1562 1563 1563 1564 1564 1564 1565
1503 1504 1507 1509 1512 1515 1517 1519 1522 1524 1526 1528 1530 1531 1533 1535 1537 1539 1540 1542 1544 1545 1547 1548 1550 1551 1553 1554 1556 1557 1558 1560 1561 1562 1562 1563 1564 1564 1565 1565 1566 1566 1566
1502 1503 1506 1509 1511 1514 1516 1518 1521 1523 1525 1527 1529 1531 1533 1535 1536 1538 1540 1542 1544 1545 1547 1548 1550 1551 1553 1555 1556 1558 1559 1560 1562 1562 1563 1564 1565 1565 1566 1566 1567 1567 1568
1502 1503 1505 1508 1510 1513 1515 1517 1520 1522 1524 1526 1528 1530 1532 1534 1536 1538 1540 1542 1543 1545 1547 1548 1550 1552 1553 1555 1557 1558 1560 1561 1562 1563 1564 1565 1566 1566 1567 1567 1568 1568 1569
1501 1502 1504 1507 1509 1511 1514 1516 1518 1521 1523 1525 1527 1529 1531 1533 1535 1537 1539 1541 1543 1545 1547 1548 1550 1552 1554 1555 1557 1559 1560 1561 1562 1563 1564 1565 1566 1567 1568 1568 1569 1569 1570
1500 1501 1503 1505 1507 1510 1512 1515 1517 1519 1522 1524 1526 1528 1530 1532 1534 1536 1538 1540 1542 1544 1546 1548 1550 1552 1553 1555 1557 1559 1560 1561 1562 1563 1564 1565 1566 1567 1568 1569 1569 1570 1570
1498 1500 1502 1504 1506 1508 1511 1513 1516 1518 1520 1522 1525 1527 1529 1531 1533 1535 1537 1540 1542 1544 1545 1548 1550 1551 1553 1555 1557 1558 1560 1561 1562 1563 1564 1565 1566 1567 1568 1569 1569 1570 1571
1496 1498 1500 1502 1504 1506 1509 1511 1514 1516 1518 1521 1523 1525 1528 1530 1532 1534 1536 1539 1541 1543 1545 1547 1549 1551 1553 1555 1556 1558 1559 1560 1562 1563 1564 1565 1566 1567 1568 1569 1569 1570 1571
1493 1496 1498 1500 1502 1504 1507 1509 1512 1514 1516 1519 1521 1524 1526 1528 1530 1533 1535 1537 1540 1542 1544 1546 1548 1550 1552 1554 1556 1557 1559 1560 1561 1562 1563 1565 1566 1567 1568 1568 1569 1570 1570
1491 1493 1495 1498 1500 1502 1504 1507 1510 1512 1514 1517 1519 1522 1524 1526 1529 1531 1534 1536 1538 1541 1543 1545 1547 1550 1552 1553 1555 1557 1558 1559 1561 1562 1563 1564 1565 1566 1567 1568 1569 1569 1570
1487 1490 1493 1495 1497 1500 1502 1505 1507 1510 1512 1515 1517 1520 1522 1524 1527 1530 1532 1534 1537 1539 1542 1544 1546 1549 1550 1552 1554 1556 1557 1559 1560 1561 1562 1563 1564 1565 1566 1567 1568 1569 1569
1484 1486 1489 1492 1494 1497 1499 1502 1505 1507 1510 1513 1515 1518 1521 1523 1525 1528 1530 1533 1535 1538 1540 1543 1545 1547 1549 1551 1553 1555 1556 1558 1559 1560 1561 1563 1564 1565 1565 1566 1567 1568 1568
1481 1483 1486 1489 1491 1494 1497 1499 1502 1505 1507 1510 1513 1515 1518 1521 1523 1526 1529 1531 1533 1536 1539 1541 1543 1545 1547 1549 1551 1553 1555 1557 1558 1559 1560 1561 1562 1563 1564 1565 1566 1566 1567
1477 1479 1482 1485 1488 1491 1494 1496 1499 1502 1505 1507 1510 1513 1515 1518 1521 1524 1526 1529 1531 1534 1536 1539 1541 1543 1545 1548 1549 1552 1554 1555 1557 1558 1559 1560 1561 1562 1563 1563 1564 1565 1566
1473 1476 1479 1482 1485 1488 1491 1493 1496 1499 1501 1504 1507 1510 1513 1515 1518 1521 1524 1527 1529 1531 1534 1537 1539 1541 1543 1546 1548 1550 1552 1554 1555 1557 1558 1559 1560 1560 1561 1562 1563 1563 1564
1470 1472 1475 1478 1481 1484 1487 1490 1492 1495 1498 1501 1504 1507 1510 1513 1515 1518 1521 1524 1526 1529 1531 1534 1536 1538 1541 1543 1546 1548 1550 1552 1554 1555 1556 1557 1558 1559 1560 1560 1561 1561 1562
1466 1468 1471 1474 1477 1480 1484 1487 1490 1492 1495 1499 1502 1504 1507 1510 1512 1515 1518 1521 1523 1526 1529 1531 1534 1535 1538 1541 1543 1545 1548 1551 1552 1553 1554 1555 1556 1557 1558 1558 1559 1559 1560
1462 1465 1467 1471 1474 1477 1481 1484 1487 1490 1493 1495 1498 1501 1504 1507 1509 1512 1515 1518 1520 1523 1526 1528 1531 1532 1535 1538 1541 1543 1545 1546 1549 1551 1552 1554 1554 1555 1556 1557 1557 1557 1558
1459 1462 1464 1467 1471 1474 1477 1480 1483 1485 1488 1491 1494 1497 1501 1504 1506 1509 1512 1515 1517 1520 1523 1525 1528 1530 1533 1535 1538 1540 1542 1543 1545 1547 1550 1551 1552 1553 1554 1554 1555 1555 1556
1457 1459 1461 1464 1467 1471 1474 1477 1480 1483 1485 1488 1492 1494 1497 1500 1503 1506 1509 1511 1514 1516 1519 1522 1524 1527 1530 1532 1534 1536 1539 1541 1542 1544 1546 1548 1550 1550 1551 1552 1552 1553 1553
1454 1456 1459 1461 1464 1467 1470 1473 1476 1479 1482 1485 1488 1490 1493 1497 1500 1503 1506 1508 1511 1513 1516 1518 1521 1524 1526 1529 1531 1533 1535 1537 1539 1541 1542 1544 1546 1547 1548 1549 1549 1550 1551